Location: Asheville, NC
(35.6000°N, 82.5500°W)
Time: 04:11:35
(UTC-05:00)

OTV 5 (USA 277) - Pass Details

Date: 08 January 2018
Orbit: 404 x 417 km, 43.0° (Epoch: 07 September)

Event Time Altitude Azimuth Distance (km) Brightness Sun altitude
Exits shadow 05:53:06 26° 25° (NNE) 835 ? -21.3°
Drops below altitude 10° 05:55:32 10° 72° (ENE) 1,450 ? -20.8°
Sets 05:57:50 0° 85° (E) 2,309 ? -20.4°
